#timestamp,LO_Frequency,Hit,StdDev 
1587906015.6,286046999.6,N
1587906035.4,286046997.0,Y
1587906055.2,286046997.7,P
1587906075.1,286046999.1,N
1587906076.0,286046999.1,N
1587906095.8,286046998.5,N
1587906115.6,286047000.7,N
1587906135.5,286047001.0,N
1587906155.3,286047002.8,N
1587906175.2,286046998.2,N
1587906195.9,286046999.9,N
1587906215.7,286046998.4,N
1587906235.6,286046998.8,N
1587906255.4,286046996.9,N
1587906275.3,286046998.5,N
1587906295.1,286047000.5,N
1587906296.0,286047000.5,N
1587906315.8,286047000.4,N
1587906335.7,286046995.0,Y
1587906355.5,286046995.5,P
1587906375.4,286046999.2,N
1587906395.2,286046998.8,N
1587906415.0,286047000.6,N
1587906415.9,286047000.6,N
1587906435.8,286047000.2,N
1587906455.6,286046999.8,N
1587906475.4,286046999.9,N
1587906495.3,286046999.1,N
1587906515.1,286046999.4,N
1587906535.9,286046998.2,N
1587906555.7,286046999.8,N
1587906575.5,286047001.6,N
1587906595.4,286047001.5,N
1587906615.2,286047002.3,N
1587906635.1,286047000.3,N
1587906636.0,286047000.3,N
1587906655.8,286047000.2,N
1587906675.6,286047002.1,N
1587906695.5,286047001.5,N
1587906715.3,286047001.1,N
1587906735.1,286047000.6,N
1587906755.9,286046999.0,N
1587906775.7,286046996.5,N
1587906795.6,286046999.4,N
1587906815.4,286047000.5,N
1587906835.2,286046999.7,N
1587906855.1,286047000.2,N
1587906856.0,286047000.2,N
1587906875.8,286047001.3,N
1587906895.7,286047004.0,N
1587906915.5,286047003.1,N
1587906935.3,286047004.2,N
1587906955.2,286047002.3,N
1587906975.0,286047001.9,N
1587906975.9,286047001.9,N
1587906995.8,286047000.1,N
1587907015.6,286046998.1,N
1587907035.4,286047000.2,N
1587907055.3,286047004.3,N
1587907075.1,286047000.0,N
1587907095.8,286046999.7,N
1587907115.7,286047004.2,N
1587907135.5,286047001.8,N
1587907155.4,286047001.3,N
1587907175.2,286047004.3,N
1587907195.0,286047003.6,N
1587907195.9,286047003.6,N
1587907215.8,286047004.4,N
1587907235.6,286047001.5,N
1587907255.4,286047004.3,N
1587907275.3,286047001.3,N
1587907295.1,286047001.9,N
1587907315.9,286047003.8,N
1587907335.7,286047003.7,N
1587907355.5,286046999.7,N
1587907375.4,286047004.4,N
1587907395.2,286047003.1,N
1587907415.1,286047005.6,Y
1587907416.0,286047005.6,P
1587907435.8,286046999.9,N
1587907455.6,286047000.0,N
1587907475.5,286047000.4,N
1587907495.3,286047000.0,N
1587907515.2,286047000.7,N
1587907535.9,286047001.0,N
1587907555.7,286047000.8,N
1587907575.6,286047001.2,N
1587907595.4,286047002.7,N
1587907615.2,286046999.7,N
1587907635.1,286046999.9,N
1587907636.0,286046999.9,N
1587907655.8,286046999.9,N
1587907675.7,286047000.7,N
1587907695.5,286047000.8,N
1587907715.3,286047000.7,N
1587907735.2,286047000.8,N
1587907755.0,286047000.8,N
1587907755.9,286047000.8,N
1587907775.8,286047001.7,N
1587907795.6,286047001.3,N
1587907815.4,286047004.1,Y
1587907835.3,286047001.5,P
1587907855.1,286047002.0,P
1587907875.9,286047001.1,N
1587907895.7,286047000.5,N
1587907915.5,286046999.1,N
1587907935.4,286047000.4,N
1587907955.2,286047000.2,N
1587907975.0,286047000.2,N
1587907975.9,286047000.2,N
1587907995.8,286047000.3,N
1587908015.6,286047000.3,N
1587908035.5,286047000.5,N
1587908055.3,286047000.4,N
1587908075.1,286046998.8,N
1587908095.9,286047000.5,N
1587908115.7,286047000.1,N
1587908135.6,286046998.9,N
1587908155.4,286046998.3,N
1587908175.2,286046998.4,N
1587908195.1,286046998.3,N
1587908196.0,286046998.3,N
1587908215.8,286046997.2,N
1587908235.7,286046997.6,N
1587908255.5,286046999.3,N
1587908275.3,286046998.3,N
1587908295.2,286046999.2,N
1587908315.0,286046997.2,N
1587908315.9,286046997.2,N
1587908335.7,286046997.2,N
1587908355.6,286046998.2,N
1587908375.4,286047001.1,N
1587908395.3,286046993.9,Y
1587908415.1,286046993.5,P
1587908435.8,286046994.9,N
1587908455.7,286046995.4,N
1587908475.5,286046996.8,N
1587908495.4,286046998.9,N
1587908515.2,286046999.5,N
1587908535.0,286046996.9,N
1587908535.9,286046996.9,N
1587908555.8,286046996.9,N
1587908575.6,286047001.2,N
1587908595.4,286047000.9,N
1587908615.3,286047002.3,N
1587908635.1,286047001.9,N
1587908655.9,286047002.4,N
1587908675.7,286047002.0,N
1587908695.5,286047002.5,N
1587908715.4,286046999.6,N
1587908735.2,286046996.9,N
1587908755.1,286047000.8,N
1587908756.0,286047000.8,N
1587908775.8,286047000.2,N
1587908795.6,286047000.3,N
1587908815.5,286046998.2,N
1587908835.3,286047001.9,N
1587908855.1,286046999.9,N
1587908875.9,286047000.2,N
1587908895.7,286047004.3,N
1587908915.6,286047004.2,N
1587908935.4,286047002.8,N
1587908955.2,286047002.7,N
1587908975.1,286047001.8,N
1587908976.0,286047001.8,N
1587908995.8,286046999.8,N
1587909015.7,286046998.5,N
1587909035.5,286047002.0,N
1587909055.3,286047001.8,N
1587909075.2,286047000.5,N
1587909095.0,286046999.6,N
1587909095.9,286046999.6,N
1587909115.8,286046998.9,N
1587909135.6,286046998.9,N
1587909155.4,286046998.4,N
1587909175.3,286046998.5,N
1587909195.1,286047000.0,N
1587909215.9,286046998.3,N
1587909235.7,286046996.7,N
1587909255.5,286046999.9,N
1587909275.4,286047000.2,N
1587909295.2,286047000.3,N
1587909315.0,286046999.0,N
1587909315.9,286046999.0,N
1587909335.8,286047001.0,N
1587909355.6,286047000.2,N
1587909375.5,286047000.1,N
1587909395.3,286046999.8,N
1587909415.1,286046999.9,N
1587909435.9,286047000.1,N
1587909455.7,286047000.9,N
1587909475.6,286047000.7,N
1587909495.4,286047002.0,N
1587909515.2,286047000.9,N
1587909535.1,286047001.0,N
1587909536.0,286047001.0,N
1587909555.8,286047000.8,N
1587909575.7,286046998.2,N
1587909595.5,286047002.8,N
